{"data":{"norad_id":67142,"intl_designator":"2025-301K","name":"KUIPER-00188","alt_names":[],"object_type":"PAYLOAD","status":"ACTIVE","operator":null,"country":"US","launch_date":"2025-12-16","launch_site_code":"AFETR","launch_vehicle":null,"mission":null,"orbit_class":"UNKNOWN","rcs_meters":null,"size_class":null,"mass_kg":null,"dimensions":null,"purposes":[],"wikipedia_slug":null,"has_3d_model":false,"image_url":null,"decayed_at":null,"tle_current":{"epoch":"2026-05-25T03:44:18.488256Z","epoch_age_seconds":71668,"freshness":"FRESH","line1":"1 67142U 25301K   26145.15576954  .00043515  00000+0  56458-2 0  9998","line2":"2 67142  51.9028  70.1040 0001685  96.2553 263.8601 14.80336269 25295","mean_motion":14.80336269,"eccentricity":0.0001685,"inclination_deg":51.9028,"raan_deg":70.104,"arg_perigee_deg":96.2553,"mean_anomaly_deg":263.8601,"bstar":0.0056458,"rev_number":2529,"period_min":97.275195518431,"perigee_km":627.08231949204,"apogee_km":629.44347625763,"semimajor_km":7006.3998978748,"source":"CELESTRAK","updated_at":"2026-05-25T13:38:06.750611Z"}}}